AAL9127 KLAX-MMSD

Flight info

Callsign AAL9127
Flight time 2h 0m
Altitude 35000
Route PNDAH2 OTAYY DCT TIJ UT6 IMUSU UT25 LTO DCT ENEKO ENEKO1B
Aircraft A21N/M-SDE3FGHIRWY/LB1

Departure

Time 2026-04-21 13:10
Airport Los Angeles International Airport (KLAX)

Arrival

Time 2026-04-21 15:10
Airport Los Cabos International Airport (MMSD)
Time Latitude Longitude Altitude Speed Heading
2026-04-21 12:38 33.94088 -118.40942 132 ft 0 kts 263°
2026-04-21 12:59 33.94088 -118.40938 132 ft 2 kts 264°
2026-04-21 12:59 33.94089 -118.40919 132 ft 2 kts 263°
2026-04-21 13:00 33.94091 -118.40902 132 ft 2 kts 263°
2026-04-21 13:00 33.94093 -118.40883 132 ft 2 kts 263°
2026-04-21 13:00 33.94094 -118.40871 132 ft 1 kts 263°
2026-04-21 13:00 33.94099 -118.40855 132 ft 2 kts 233°
2026-04-21 13:01 33.94110 -118.40843 132 ft 2 kts 206°
2026-04-21 13:01 33.94124 -118.40839 132 ft 1 kts 178°
2026-04-21 13:01 33.94130 -118.40839 132 ft 1 kts 170°
2026-04-21 13:01 33.94133 -118.40840 132 ft 0 kts 173°
2026-04-21 13:03 33.94132 -118.40840 132 ft 0 kts 173°
2026-04-21 13:03 33.94108 -118.40836 132 ft 9 kts 173°
2026-04-21 13:03 33.94022 -118.40823 132 ft 12 kts 173°
2026-04-21 13:04 33.93935 -118.40809 133 ft 12 kts 168°
2026-04-21 13:04 33.93863 -118.40756 135 ft 11 kts 145°
2026-04-21 13:04 33.93815 -118.40675 135 ft 15 kts 99°
2026-04-21 13:04 33.93827 -118.40514 132 ft 23 kts 83°
2026-04-21 13:05 33.93846 -118.40317 127 ft 24 kts 84°
2026-04-21 13:05 33.93867 -118.40115 123 ft 24 kts 83°
2026-04-21 13:05 33.93887 -118.39911 121 ft 24 kts 83°
2026-04-21 13:05 33.93908 -118.39711 119 ft 23 kts 83°
2026-04-21 13:06 33.93928 -118.39510 114 ft 24 kts 83°
2026-04-21 13:06 33.93949 -118.39306 111 ft 24 kts 83°
2026-04-21 13:06 33.93970 -118.39108 109 ft 23 kts 83°
2026-04-21 13:06 33.93989 -118.38914 108 ft 23 kts 83°
2026-04-21 13:07 33.94009 -118.38724 107 ft 22 kts 83°
2026-04-21 13:07 33.94028 -118.38538 106 ft 22 kts 83°
2026-04-21 13:07 33.94046 -118.38357 105 ft 21 kts 83°
2026-04-21 13:07 33.94064 -118.38182 103 ft 21 kts 83°
2026-04-21 13:08 33.94076 -118.38067 103 ft 20 kts 83°
2026-04-21 13:08 33.94074 -118.38036 102 ft 6 kts 112°
2026-04-21 13:08 33.94029 -118.37997 102 ft 7 kts 170°
2026-04-21 13:08 33.93986 -118.38025 102 ft 8 kts 251°
2026-04-21 13:09 33.93984 -118.38040 102 ft 7 kts 259°
2026-04-21 13:09 33.93943 -118.38441 105 ft 85 kts 263°
2026-04-21 13:09 33.93846 -118.39412 113 ft 147 kts 263°
2026-04-21 13:09 33.93699 -118.40835 220 ft 188 kts 263°
2026-04-21 13:10 33.93540 -118.42409 871 ft 192 kts 263°
2026-04-21 13:10 33.93378 -118.43961 1711 ft 188 kts 262°
2026-04-21 13:10 33.93149 -118.45534 2295 ft 198 kts 251°
2026-04-21 13:10 33.92461 -118.47021 2764 ft 213 kts 232°
2026-04-21 13:11 33.91505 -118.48482 3194 ft 234 kts 230°
2026-04-21 13:11 33.90420 -118.50055 3663 ft 254 kts 229°
2026-04-21 13:11 33.89245 -118.51693 4387 ft 263 kts 229°
2026-04-21 13:11 33.88065 -118.53346 5349 ft 262 kts 229°
2026-04-21 13:12 33.86847 -118.54944 6293 ft 261 kts 220°
2026-04-21 13:12 33.85235 -118.55867 7129 ft 264 kts 193°
2026-04-21 13:12 33.83397 -118.55810 7965 ft 269 kts 171°
2026-04-21 13:12 33.81589 -118.55295 8787 ft 270 kts 171°
2026-04-21 13:13 33.79768 -118.54787 9577 ft 271 kts 171°
2026-04-21 13:13 33.77935 -118.54286 10381 ft 271 kts 171°
2026-04-21 13:13 33.76080 -118.53786 10964 ft 280 kts 172°
2026-04-21 13:13 33.74124 -118.53264 11292 ft 297 kts 172°
2026-04-21 13:14 33.72062 -118.52697 11600 ft 314 kts 168°
2026-04-21 13:14 33.70054 -118.51502 12035 ft 335 kts 147°
2026-04-21 13:14 33.68513 -118.49371 12703 ft 349 kts 126°
2026-04-21 13:14 33.67397 -118.46788 13420 ft 353 kts 123°
2026-04-21 13:15 33.66285 -118.44157 14071 ft 356 kts 123°
2026-04-21 13:15 33.65147 -118.41490 14655 ft 361 kts 123°
2026-04-21 13:15 33.64005 -118.38824 15241 ft 365 kts 123°
2026-04-21 13:15 33.62835 -118.36101 15823 ft 368 kts 123°
2026-04-21 13:16 33.61668 -118.33393 16369 ft 373 kts 123°
2026-04-21 13:16 33.60467 -118.30607 16918 ft 377 kts 123°
2026-04-21 13:16 33.59259 -118.27808 17453 ft 381 kts 123°
2026-04-21 13:16 33.58054 -118.25014 17955 ft 385 kts 123°
2026-04-21 13:17 33.56820 -118.22155 18487 ft 388 kts 123°
2026-04-21 13:17 33.55576 -118.19279 19024 ft 392 kts 123°
2026-04-21 13:17 33.54319 -118.16376 19517 ft 396 kts 123°
2026-04-21 13:17 33.53040 -118.13419 20019 ft 399 kts 123°
2026-04-21 13:18 33.51778 -118.10487 20498 ft 403 kts 123°
2026-04-21 13:18 33.50490 -118.07491 20971 ft 407 kts 122°
2026-04-21 13:18 33.49184 -118.04453 21447 ft 410 kts 123°
2026-04-21 13:18 33.47837 -118.01480 21915 ft 410 kts 127°
2026-04-21 13:19 33.46171 -117.98692 22376 ft 407 kts 135°
2026-04-21 13:19 33.44233 -117.96236 22815 ft 405 kts 142°
2026-04-21 13:19 33.42144 -117.93980 23285 ft 406 kts 144°
2026-04-21 13:19 33.40022 -117.91755 23693 ft 410 kts 144°
2026-04-21 13:20 33.38591 -117.90256 23963 ft 412 kts 144°
2026-04-21 13:20 33.35728 -117.87244 24465 ft 417 kts 144°
2026-04-21 13:20 33.33534 -117.84928 24837 ft 421 kts 143°
2026-04-21 13:20 33.31334 -117.82600 25239 ft 423 kts 143°
2026-04-21 13:21 33.29128 -117.80267 25620 ft 426 kts 143°
2026-04-21 13:21 33.26908 -117.77919 25952 ft 429 kts 143°
2026-04-21 13:21 33.24663 -117.75544 26308 ft 432 kts 143°
2026-04-21 13:21 33.22403 -117.73150 26656 ft 435 kts 143°
2026-04-21 13:22 33.20162 -117.70781 26976 ft 437 kts 143°
2026-04-21 13:22 33.17883 -117.68376 27323 ft 439 kts 143°
2026-04-21 13:22 33.15573 -117.65932 27634 ft 442 kts 143°
2026-04-21 13:22 33.13320 -117.63458 27908 ft 446 kts 142°
2026-04-21 13:23 33.11033 -117.60904 28210 ft 448 kts 142°
2026-04-21 13:23 33.08770 -117.58373 28502 ft 450 kts 141°
2026-04-21 13:23 33.06500 -117.55837 28783 ft 453 kts 141°
2026-04-21 13:23 33.04191 -117.53266 29103 ft 454 kts 141°
2026-04-21 13:24 33.01888 -117.50703 29416 ft 455 kts 141°
2026-04-21 13:24 32.99575 -117.48133 29682 ft 457 kts 141°
2026-04-21 13:24 32.97241 -117.45544 30009 ft 457 kts 141°
2026-04-21 13:24 32.94913 -117.42962 30361 ft 457 kts 142°
2026-04-21 13:25 32.92622 -117.40422 30704 ft 456 kts 141°
2026-04-21 13:25 32.90283 -117.37833 31035 ft 456 kts 142°
2026-04-21 13:25 32.87986 -117.35294 31353 ft 456 kts 142°
2026-04-21 13:25 32.85648 -117.32708 31631 ft 456 kts 142°
2026-04-21 13:26 32.83340 -117.30160 31917 ft 456 kts 142°
2026-04-21 13:26 32.80999 -117.27576 32156 ft 457 kts 142°
2026-04-21 13:26 32.78686 -117.25027 32365 ft 459 kts 142°
2026-04-21 13:26 32.76359 -117.22463 32590 ft 459 kts 142°
2026-04-21 13:27 32.73986 -117.19850 32816 ft 460 kts 142°
2026-04-21 13:27 32.71646 -117.17272 33043 ft 461 kts 142°
2026-04-21 13:27 32.69311 -117.14706 33275 ft 461 kts 142°
2026-04-21 13:27 32.66987 -117.12113 33449 ft 464 kts 140°
2026-04-21 13:28 32.64718 -117.09317 33569 ft 469 kts 137°
2026-04-21 13:28 32.62523 -117.06445 33743 ft 471 kts 136°
2026-04-21 13:28 32.60358 -117.03584 33914 ft 473 kts 136°
2026-04-21 13:28 32.58141 -117.00658 34085 ft 474 kts 136°
2026-04-21 13:29 32.55933 -116.97781 34293 ft 473 kts 138°
2026-04-21 13:29 32.53627 -116.95052 34506 ft 471 kts 142°
2026-04-21 13:29 32.51174 -116.92490 34684 ft 469 kts 145°
2026-04-21 13:29 32.48656 -116.90059 34843 ft 470 kts 146°
2026-04-21 13:30 32.46095 -116.87610 35004 ft 471 kts 146°
2026-04-21 13:30 32.43560 -116.85187 35076 ft 473 kts 146°
2026-04-21 13:30 32.38462 -116.80304 35082 ft 472 kts 146°
2026-04-21 13:31 32.33350 -116.75401 35082 ft 472 kts 146°
2026-04-21 13:31 32.28253 -116.70521 35084 ft 473 kts 145°
2026-04-21 13:32 32.23155 -116.65641 35086 ft 474 kts 145°
2026-04-21 13:32 32.18021 -116.60734 35092 ft 476 kts 145°
2026-04-21 13:33 32.12906 -116.55806 35095 ft 476 kts 144°
2026-04-21 13:33 32.07833 -116.50745 35104 ft 475 kts 143°
2026-04-21 13:34 32.02807 -116.45726 35104 ft 476 kts 143°
2026-04-21 13:34 31.97734 -116.40681 35112 ft 478 kts 143°
2026-04-21 13:35 31.92678 -116.35663 35113 ft 478 kts 143°
2026-04-21 13:35 31.87559 -116.30590 35113 ft 478 kts 144°
2026-04-21 13:36 31.82760 -116.25838 35115 ft 479 kts 144°
2026-04-21 13:36 31.77657 -116.20796 35120 ft 478 kts 144°
2026-04-21 13:37 31.72523 -116.15912 35127 ft 476 kts 147°
2026-04-21 13:37 31.67239 -116.11212 35129 ft 477 kts 147°
2026-04-21 13:38 31.61934 -116.06498 35133 ft 478 kts 147°
2026-04-21 13:38 31.56641 -116.01798 35139 ft 479 kts 146°
2026-04-21 13:39 31.51334 -115.97088 35141 ft 480 kts 146°
2026-04-21 13:39 31.46023 -115.92378 35131 ft 479 kts 146°
2026-04-21 13:40 31.40723 -115.87685 35126 ft 480 kts 146°
2026-04-21 13:40 31.35392 -115.82974 35111 ft 480 kts 146°
2026-04-21 13:41 31.30081 -115.78287 35103 ft 480 kts 146°
2026-04-21 13:41 31.24751 -115.73589 35113 ft 480 kts 146°
2026-04-21 13:42 31.19430 -115.68906 35118 ft 480 kts 146°
2026-04-21 13:42 31.14100 -115.64222 35123 ft 480 kts 146°
2026-04-21 13:43 31.08766 -115.59539 35144 ft 481 kts 146°
2026-04-21 13:43 31.03415 -115.54852 35179 ft 481 kts 146°
2026-04-21 13:44 30.98077 -115.50177 35219 ft 481 kts 146°
2026-04-21 13:44 30.92717 -115.45490 35200 ft 481 kts 146°
2026-04-21 13:45 30.87390 -115.40840 35161 ft 482 kts 146°
2026-04-21 13:45 30.82023 -115.36158 35140 ft 482 kts 146°
2026-04-21 13:46 30.76709 -115.31383 35141 ft 483 kts 144°
2026-04-21 13:46 30.71465 -115.26510 35158 ft 482 kts 144°
2026-04-21 13:47 30.66247 -115.21675 35160 ft 484 kts 144°
2026-04-21 13:47 30.60970 -115.16808 35121 ft 484 kts 145°
2026-04-21 13:48 30.55706 -115.11961 35090 ft 484 kts 144°
2026-04-21 13:48 30.50403 -115.07085 35073 ft 486 kts 145°
2026-04-21 13:49 30.45136 -115.02255 35059 ft 486 kts 144°
2026-04-21 13:49 30.39820 -114.97385 35056 ft 487 kts 144°
2026-04-21 13:50 30.34520 -114.92535 35042 ft 487 kts 144°
2026-04-21 13:50 30.29192 -114.87666 35045 ft 487 kts 144°
2026-04-21 13:51 30.23891 -114.82827 35045 ft 487 kts 144°
2026-04-21 13:51 30.18562 -114.77973 35035 ft 488 kts 144°
2026-04-21 13:52 30.13239 -114.73131 35040 ft 489 kts 144°
2026-04-21 13:52 30.07891 -114.68271 35026 ft 488 kts 145°
2026-04-21 13:53 30.02562 -114.63436 35026 ft 489 kts 144°
2026-04-21 13:53 29.97242 -114.58617 35018 ft 489 kts 144°
2026-04-21 13:54 29.91899 -114.53779 35018 ft 489 kts 145°
2026-04-21 13:54 29.86513 -114.48914 35023 ft 490 kts 145°
2026-04-21 13:55 29.81190 -114.44113 35023 ft 489 kts 145°
2026-04-21 13:55 29.75851 -114.39301 35021 ft 488 kts 145°
2026-04-21 13:56 29.70518 -114.34506 35014 ft 488 kts 146°
2026-04-21 13:56 29.65196 -114.29720 35017 ft 487 kts 146°
2026-04-21 13:57 29.59851 -114.24926 35016 ft 486 kts 146°
2026-04-21 13:57 29.54536 -114.20164 35020 ft 486 kts 146°
2026-04-21 13:58 29.49191 -114.15379 35024 ft 487 kts 146°
2026-04-21 13:58 29.43839 -114.10597 35033 ft 486 kts 146°
2026-04-21 13:59 29.38524 -114.05853 35041 ft 486 kts 146°
2026-04-21 13:59 29.33203 -114.01112 35053 ft 485 kts 146°
2026-04-21 14:00 29.27892 -113.96383 35074 ft 485 kts 146°
2026-04-21 14:00 29.22545 -113.91631 35089 ft 486 kts 146°
2026-04-21 14:01 29.17200 -113.86884 35080 ft 486 kts 146°
2026-04-21 14:01 29.11882 -113.82164 35064 ft 486 kts 146°
2026-04-21 14:02 29.06550 -113.77445 35056 ft 486 kts 146°
2026-04-21 14:03 28.98501 -113.70350 35046 ft 487 kts 147°
2026-04-21 14:03 28.93137 -113.65624 35042 ft 488 kts 146°
2026-04-21 14:04 28.87775 -113.60902 35044 ft 487 kts 146°
2026-04-21 14:04 28.82419 -113.56193 35043 ft 487 kts 146°
2026-04-21 14:05 28.77074 -113.51496 35042 ft 487 kts 146°
2026-04-21 14:05 28.71696 -113.46777 35039 ft 487 kts 146°
2026-04-21 14:06 28.66322 -113.42069 35042 ft 487 kts 147°
2026-04-21 14:06 28.60957 -113.37376 35046 ft 487 kts 147°
2026-04-21 14:07 28.55602 -113.32694 35043 ft 486 kts 147°
2026-04-21 14:07 28.50242 -113.28018 35040 ft 487 kts 147°
2026-04-21 14:08 28.44879 -113.23344 35044 ft 487 kts 147°
2026-04-21 14:08 28.39513 -113.18673 35050 ft 486 kts 147°
2026-04-21 14:09 28.34162 -113.14020 35057 ft 487 kts 147°
2026-04-21 14:09 28.28763 -113.09333 35063 ft 486 kts 148°
2026-04-21 14:10 28.23418 -113.04697 35067 ft 486 kts 148°
2026-04-21 14:10 28.18043 -113.00049 35065 ft 486 kts 147°
2026-04-21 14:11 28.12650 -112.95384 35065 ft 486 kts 147°
2026-04-21 14:11 28.07287 -112.90752 35061 ft 486 kts 148°
2026-04-21 14:12 28.01942 -112.86140 35057 ft 486 kts 148°
2026-04-21 14:12 27.96564 -112.81508 35049 ft 486 kts 148°
2026-04-21 14:13 27.91176 -112.76873 35039 ft 486 kts 148°
2026-04-21 14:13 27.85777 -112.72234 35040 ft 487 kts 148°
2026-04-21 14:14 27.80401 -112.67619 35029 ft 486 kts 148°
2026-04-21 14:14 27.75045 -112.63030 35036 ft 487 kts 148°
2026-04-21 14:15 27.69646 -112.58407 35034 ft 487 kts 148°
2026-04-21 14:15 27.64251 -112.53793 35041 ft 486 kts 148°
2026-04-21 14:16 27.58856 -112.49186 35044 ft 486 kts 148°
2026-04-21 14:16 27.53490 -112.44610 35056 ft 486 kts 148°
2026-04-21 14:17 27.48095 -112.40012 35056 ft 486 kts 148°
2026-04-21 14:17 27.42703 -112.35422 35054 ft 486 kts 148°
2026-04-21 14:18 27.37289 -112.30817 35045 ft 486 kts 149°
2026-04-21 14:18 27.31869 -112.26388 35039 ft 482 kts 153°
2026-04-21 14:19 27.26196 -112.22428 35037 ft 480 kts 155°
2026-04-21 14:19 27.20473 -112.18492 35035 ft 480 kts 155°
2026-04-21 14:20 27.14797 -112.14582 35042 ft 480 kts 155°
2026-04-21 14:20 27.09103 -112.10658 35043 ft 480 kts 155°
2026-04-21 14:21 27.03434 -112.06752 35041 ft 480 kts 155°
2026-04-21 14:21 26.97750 -112.02842 35039 ft 480 kts 155°
2026-04-21 14:22 26.92038 -111.98915 35035 ft 480 kts 155°
2026-04-21 14:22 26.86383 -111.95033 35037 ft 480 kts 155°
2026-04-21 14:23 26.80663 -111.91108 35042 ft 479 kts 155°
2026-04-21 14:23 26.74984 -111.87214 35045 ft 479 kts 155°
2026-04-21 14:24 26.69298 -111.83325 35051 ft 480 kts 155°
2026-04-21 14:24 26.63577 -111.79425 35051 ft 479 kts 155°
2026-04-21 14:25 26.57889 -111.75547 35049 ft 479 kts 155°
2026-04-21 14:25 26.52212 -111.71677 35045 ft 479 kts 155°
2026-04-21 14:26 26.46522 -111.67802 35043 ft 479 kts 155°
2026-04-21 14:26 26.40848 -111.63941 35044 ft 479 kts 155°
2026-04-21 14:27 26.35165 -111.60076 35045 ft 479 kts 155°
2026-04-21 14:27 26.29476 -111.56215 35044 ft 479 kts 155°
2026-04-21 14:28 26.23770 -111.52344 35038 ft 479 kts 155°
2026-04-21 14:28 26.18081 -111.48489 35045 ft 478 kts 155°
2026-04-21 14:29 26.12389 -111.44634 35052 ft 478 kts 155°
2026-04-21 14:29 26.06729 -111.40807 35057 ft 478 kts 155°
2026-04-21 14:30 26.01096 -111.36826 35061 ft 482 kts 151°
2026-04-21 14:30 25.95792 -111.32127 35054 ft 490 kts 144°
2026-04-21 14:31 25.90982 -111.26759 35049 ft 494 kts 139°
2026-04-21 14:31 25.86296 -111.21210 35039 ft 494 kts 139°
2026-04-21 14:32 25.81571 -111.15635 35037 ft 493 kts 139°
2026-04-21 14:32 25.76892 -111.10139 35032 ft 493 kts 139°
2026-04-21 14:33 25.72204 -111.04649 35032 ft 492 kts 140°
2026-04-21 14:33 25.67477 -110.99123 35031 ft 492 kts 139°
2026-04-21 14:34 25.62784 -110.93642 35029 ft 491 kts 139°
2026-04-21 14:34 25.58075 -110.88152 35036 ft 492 kts 139°
2026-04-21 14:35 25.53390 -110.82694 35035 ft 492 kts 139°
2026-04-21 14:35 25.48678 -110.77209 35037 ft 491 kts 139°
2026-04-21 14:36 25.43980 -110.71749 35036 ft 491 kts 140°
2026-04-21 14:36 25.39254 -110.66264 35039 ft 492 kts 139°
2026-04-21 14:37 25.34555 -110.60816 35038 ft 492 kts 140°
2026-04-21 14:37 25.29826 -110.55341 35038 ft 491 kts 140°
2026-04-21 14:38 25.25114 -110.49891 35034 ft 491 kts 140°
2026-04-21 14:38 25.20425 -110.44471 35038 ft 490 kts 140°
2026-04-21 14:39 25.15695 -110.39018 35037 ft 491 kts 140°
2026-04-21 14:39 25.10993 -110.33598 35031 ft 491 kts 140°
2026-04-21 14:40 25.06274 -110.28166 34980 ft 492 kts 140°
2026-04-21 14:40 25.03923 -110.25462 34699 ft 490 kts 140°
2026-04-21 14:40 25.01564 -110.22749 34427 ft 487 kts 140°
2026-04-21 14:40 24.99234 -110.20072 34157 ft 484 kts 140°
2026-04-21 14:41 24.96908 -110.17401 33882 ft 481 kts 140°
2026-04-21 14:41 24.94590 -110.14740 33609 ft 481 kts 140°
2026-04-21 14:41 24.92271 -110.12083 33340 ft 482 kts 140°
2026-04-21 14:41 24.89965 -110.09442 33069 ft 483 kts 140°
2026-04-21 14:42 24.87617 -110.06754 32801 ft 483 kts 140°
2026-04-21 14:42 24.85310 -110.04112 32533 ft 483 kts 140°
2026-04-21 14:42 24.82976 -110.01442 32263 ft 484 kts 140°
2026-04-21 14:42 24.80651 -109.98785 31994 ft 485 kts 140°
2026-04-21 14:43 24.78313 -109.96114 31734 ft 486 kts 140°
2026-04-21 14:43 24.75970 -109.93435 31463 ft 486 kts 140°
2026-04-21 14:43 24.73614 -109.90746 31197 ft 486 kts 140°
2026-04-21 14:43 24.71286 -109.88091 30933 ft 487 kts 140°
2026-04-21 14:44 24.68933 -109.85411 30522 ft 489 kts 140°
2026-04-21 14:44 24.66557 -109.82703 29903 ft 490 kts 140°
2026-04-21 14:44 24.64227 -109.80048 29387 ft 485 kts 140°
2026-04-21 14:44 24.61897 -109.77391 28936 ft 480 kts 140°
2026-04-21 14:45 24.59578 -109.74750 28480 ft 476 kts 140°
2026-04-21 14:45 24.57297 -109.72155 28012 ft 472 kts 140°
2026-04-21 14:45 24.55021 -109.69567 27545 ft 468 kts 140°
2026-04-21 14:45 24.52795 -109.67037 27104 ft 464 kts 140°
2026-04-21 14:46 24.50545 -109.64483 26636 ft 460 kts 140°
2026-04-21 14:46 24.48325 -109.61964 26170 ft 456 kts 140°
2026-04-21 14:46 24.46137 -109.59483 25718 ft 452 kts 140°
2026-04-21 14:46 24.43970 -109.57026 25253 ft 449 kts 139°
2026-04-21 14:47 24.41798 -109.54562 24787 ft 446 kts 140°
2026-04-21 14:47 24.39682 -109.52165 24329 ft 443 kts 139°
2026-04-21 14:47 24.37552 -109.49752 23869 ft 439 kts 139°
2026-04-21 14:47 24.35419 -109.47340 23406 ft 436 kts 139°
2026-04-21 14:48 24.33247 -109.45056 22895 ft 428 kts 148°
2026-04-21 14:48 24.30671 -109.43645 22408 ft 407 kts 171°
2026-04-21 14:48 24.27932 -109.43387 21928 ft 388 kts 191°
2026-04-21 14:48 24.25342 -109.43970 21494 ft 378 kts 199°
2026-04-21 14:49 24.22782 -109.44673 21154 ft 372 kts 199°
2026-04-21 14:49 24.20292 -109.45344 20734 ft 368 kts 198°
2026-04-21 14:49 24.17817 -109.45997 20269 ft 366 kts 198°
2026-04-21 14:49 24.15330 -109.46645 19777 ft 365 kts 198°
2026-04-21 14:50 24.13675 -109.47073 19366 ft 366 kts 197°
2026-04-21 14:50 24.10365 -109.47925 18700 ft 364 kts 197°
2026-04-21 14:50 24.07924 -109.48547 18245 ft 362 kts 197°
2026-04-21 14:50 24.05480 -109.49169 17780 ft 361 kts 196°
2026-04-21 14:51 24.03012 -109.49797 17271 ft 360 kts 196°
2026-04-21 14:51 24.00591 -109.50411 16849 ft 357 kts 196°
2026-04-21 14:51 23.98187 -109.51020 16446 ft 353 kts 196°
2026-04-21 14:51 23.95789 -109.51630 16035 ft 350 kts 196°
2026-04-21 14:52 23.93419 -109.52228 15615 ft 348 kts 195°
2026-04-21 14:52 23.91029 -109.52612 15211 ft 347 kts 188°
2026-04-21 14:52 23.88627 -109.52637 14981 ft 344 kts 180°
2026-04-21 14:52 23.86219 -109.52399 14961 ft 348 kts 177°
2026-04-21 14:53 23.83825 -109.52110 14954 ft 348 kts 177°
2026-04-21 14:53 23.81421 -109.51814 14949 ft 348 kts 177°
2026-04-21 14:53 23.79005 -109.51516 14928 ft 344 kts 177°
2026-04-21 14:53 23.76751 -109.51238 14910 ft 328 kts 177°
2026-04-21 14:54 23.74538 -109.50966 14885 ft 313 kts 177°
2026-04-21 14:54 23.72384 -109.50703 14594 ft 308 kts 178°
2026-04-21 14:54 23.70273 -109.50450 14300 ft 303 kts 178°
2026-04-21 14:54 23.68197 -109.50202 14000 ft 299 kts 178°
2026-04-21 14:55 23.66121 -109.49953 13699 ft 294 kts 178°
2026-04-21 14:55 23.64108 -109.49712 13411 ft 290 kts 178°
2026-04-21 14:55 23.62128 -109.49474 13114 ft 286 kts 178°
2026-04-21 14:55 23.60165 -109.49239 12803 ft 282 kts 177°
2026-04-21 14:56 23.58211 -109.49004 12585 ft 282 kts 178°
2026-04-21 14:56 23.56245 -109.48769 12419 ft 281 kts 177°
2026-04-21 14:56 23.54300 -109.48536 12274 ft 281 kts 178°
2026-04-21 14:56 23.52364 -109.48305 12138 ft 280 kts 177°
2026-04-21 14:57 23.50432 -109.48072 12007 ft 280 kts 178°
2026-04-21 14:57 23.48475 -109.48013 11688 ft 276 kts 192°
2026-04-21 14:57 23.46643 -109.48467 11403 ft 271 kts 198°
2026-04-21 14:57 23.44814 -109.49028 11141 ft 270 kts 198°
2026-04-21 14:58 23.43011 -109.49564 10895 ft 270 kts 197°
2026-04-21 14:58 23.41185 -109.50082 10647 ft 269 kts 196°
2026-04-21 14:58 23.39377 -109.50574 10406 ft 269 kts 196°
2026-04-21 14:58 23.37552 -109.51057 10175 ft 267 kts 196°
2026-04-21 14:59 23.35729 -109.51533 10109 ft 267 kts 195°
2026-04-21 14:59 23.33933 -109.51998 10055 ft 267 kts 195°
2026-04-21 14:59 23.32116 -109.52467 10003 ft 267 kts 195°
2026-04-21 14:59 23.30294 -109.52936 9957 ft 267 kts 195°
2026-04-21 15:00 23.28496 -109.53397 9839 ft 268 kts 195°
2026-04-21 15:00 23.26671 -109.53865 9611 ft 265 kts 195°
2026-04-21 15:00 23.24870 -109.54327 9354 ft 263 kts 195°
2026-04-21 15:00 23.23103 -109.54781 8960 ft 261 kts 195°
2026-04-21 15:01 23.21343 -109.55228 8501 ft 261 kts 195°
2026-04-21 15:01 23.19595 -109.55666 8183 ft 255 kts 195°
2026-04-21 15:01 23.17878 -109.56096 7865 ft 250 kts 194°
2026-04-21 15:01 23.16185 -109.56519 7572 ft 246 kts 194°
2026-04-21 15:02 23.14531 -109.56933 7288 ft 242 kts 194°
2026-04-21 15:02 23.12900 -109.57341 7007 ft 238 kts 194°
2026-04-21 15:02 23.11303 -109.57742 6677 ft 233 kts 194°
2026-04-21 15:02 23.09747 -109.58130 6330 ft 229 kts 193°
2026-04-21 15:03 23.08208 -109.58514 5984 ft 224 kts 193°
2026-04-21 15:03 23.06692 -109.58894 5644 ft 220 kts 193°
2026-04-21 15:03 23.05215 -109.59262 5375 ft 212 kts 193°
2026-04-21 15:03 23.03823 -109.59609 5097 ft 204 kts 193°
2026-04-21 15:04 23.02449 -109.59953 4767 ft 196 kts 193°
2026-04-21 15:04 23.01146 -109.60279 4479 ft 188 kts 193°
2026-04-21 15:04 22.99883 -109.60629 4222 ft 189 kts 200°
2026-04-21 15:04 22.98786 -109.61404 3963 ft 190 kts 224°
2026-04-21 15:05 22.98055 -109.62603 3912 ft 192 kts 246°
2026-04-21 15:05 22.97638 -109.65402 3822 ft 173 kts 263°
2026-04-21 15:05 22.97535 -109.66671 3730 ft 168 kts 263°
2026-04-21 15:06 22.97427 -109.67930 3629 ft 168 kts 263°
2026-04-21 15:06 22.97577 -109.69175 3474 ft 170 kts 298°
2026-04-21 15:06 22.98457 -109.69996 3425 ft 172 kts 336°
2026-04-21 15:06 22.99612 -109.70324 3173 ft 170 kts 352°
2026-04-21 15:07 23.00752 -109.70453 2915 ft 158 kts 356°
2026-04-21 15:07 23.01822 -109.70542 2698 ft 152 kts 356°
2026-04-21 15:07 23.02877 -109.70641 2510 ft 152 kts 355°
2026-04-21 15:07 23.03938 -109.70756 2304 ft 150 kts 355°
2026-04-21 15:08 23.04971 -109.70876 2101 ft 149 kts 354°
2026-04-21 15:08 23.05996 -109.70998 1900 ft 148 kts 354°
2026-04-21 15:08 23.07027 -109.71118 1695 ft 147 kts 354°
2026-04-21 15:08 23.08049 -109.71236 1491 ft 147 kts 354°
2026-04-21 15:09 23.09069 -109.71354 1289 ft 147 kts 354°
2026-04-21 15:09 23.10079 -109.71471 1093 ft 146 kts 354°
2026-04-21 15:09 23.11092 -109.71587 893 ft 146 kts 354°
2026-04-21 15:09 23.12100 -109.71703 691 ft 145 kts 354°
2026-04-21 15:10 23.13107 -109.71818 489 ft 145 kts 354°
2026-04-21 15:10 23.14116 -109.71937 337 ft 142 kts 354°
2026-04-21 15:10 23.14917 -109.72029 354 ft 75 kts 349°
2026-04-21 15:10 23.15208 -109.72067 362 ft 32 kts 354°
2026-04-21 15:11 23.15448 -109.72047 367 ft 32 kts 30°
2026-04-21 15:11 23.15613 -109.71969 368 ft 24 kts 25°
2026-04-21 15:11 23.15767 -109.71926 370 ft 21 kts
2026-04-21 15:11 23.15883 -109.71863 371 ft 16 kts 14°
2026-04-21 15:12 23.15990 -109.71864 373 ft 14 kts 355°
2026-04-21 15:12 23.16085 -109.71869 374 ft 10 kts 25°
2026-04-21 15:12 23.16104 -109.71831 374 ft 0 kts 82°